CHOMPTT (43855 NORAD) Tracking and Keplerian Element Data

This shows tracking and keplerian element data for the satellite.

Feedback or suggestion? Click here.




ElementValue
Catalog43855
NameCHOMPTT
Epoch Orbit3252
Epoch Day199.27614894
Epoch Year2019
RAAN36.8794
Inclination85.0363
Eccentricity0.0016187
Argument of Perigee199.797
Mean Anonmoly160.2658
Mean Motion15.22409504
Decay Rate6.5E-06
L11 43855U 18104G 19199.27614894 .00000650 00000-0 26286-4 0 9998
L22 43855 85.0363 36.8794 0016187 199.7970 160.2658 15.22409504 32526

Live tracking and technical data element details for CHOMPTT (NORAD 43855). CHOMPTT can be tracked NOW for your location showing map with azimuth and elevation plus other details from your city location.

Track the satellite on the map from your city or location and see movement details for azimuth, elevation, latitude, longitude, range, height, and movement on the map or in text.







IsCatalogInMostPopularTable: catalog: 43855, numindb: 127
Update: records affected: 1



GetName: 43855 CHOMPTT

Hit Count: updated at: Mon, 22 Jul 2019 04:19:49 GMT